PBO Station Position Time Series. Reference Frame : NAM14
Format Version,1.1.1
4-character ID,PTRF
Station name,Port_Renfrew
Begin Date, 2008-07-15
End Date, 2023-06-26
Release Date, 2023-06-27
Reference position, 48.5442685028 North Latitude, -124.4130587229 East Longitude, 172.84578 meters elevation,
Date, North (mm), East (mm), Vertical (mm), North Std. Deviation (mm), East Std. Deviation (mm),              Vertical Std. Deviation (mm), Quality,
2008-07-15,0.00, 0.00, 0.00, 2.23, 1.49, 6.78, repro,
2009-01-14,1.56, 5.03, -18.14, 2.24, 1.50, 6.88, repro,
2009-01-15,0.11, 4.69, -19.87, 2.22, 1.49, 6.82, repro,
2009-01-16,1.58, 4.48, -16.66, 2.21, 1.49, 6.80, repro,
2009-01-17,1.33, 3.82, -16.15, 2.21, 1.50, 6.85, repro,
2009-01-18,0.37, 4.24, -19.44, 2.23, 1.50, 6.88, repro,
2009-01-19,0.15, 5.85, -19.70, 2.25, 1.50, 6.90, repro,
2009-01-20,0.71, 5.50, -19.85, 2.24, 1.50, 6.89, repro,
2009-01-21,0.72, 5.07, -15.58, 2.23, 1.50, 6.88, repro,
2009-01-22,1.46, 3.96, -15.50, 2.20, 1.49, 6.81, repro,
2009-01-23,-0.09, 4.33, -15.95, 2.22, 1.50, 6.89, repro,
2009-01-24,0.80, 4.77, -15.05, 2.25, 1.52, 6.98, repro,
2009-01-25,0.75, 4.49, -14.90, 2.24, 1.51, 6.92, repro,
2009-01-26,0.15, 4.89, -11.99, 2.21, 1.49, 6.83, repro,
2009-01-27,-0.90, 4.38, -2.48, 2.22, 1.50, 6.89, repro,
2009-01-28,0.31, 4.56, -13.36, 2.20, 1.50, 6.87, repro,
2009-01-29,-0.40, 5.56, -15.81, 2.23, 1.51, 6.94, repro,
2009-01-30,1.19, 4.33, -15.45, 2.23, 1.52, 6.93, repro,
2009-01-31,0.68, 3.31, -12.78, 2.25, 1.51, 6.97, repro,
2009-02-01,0.56, 4.73, -14.06, 2.21, 1.49, 6.82, repro,
2009-02-02,1.09, 5.15, -18.48, 2.21, 1.50, 6.87, repro,
2009-02-03,-0.05, 4.40, -18.78, 2.23, 1.52, 6.94, repro,
2009-02-04,0.90, 4.90, -19.93, 2.23, 1.51, 6.93, repro,
2009-02-05,0.46, 4.69, -18.62, 2.27, 1.55, 7.04, repro,
2009-02-06,0.34, 4.28, -8.25, 2.30, 1.57, 7.09, repro,
2009-02-07,-0.38, 5.33, -12.59, 2.25, 1.54, 7.04, repro,
2009-02-08,-1.21, 3.87, -10.18, 2.22, 1.51, 6.87, repro,
2009-02-09,-0.01, 4.07, -1.94, 2.26, 1.55, 7.02, repro,
2009-02-10,1.29, 4.11, -12.21, 2.21, 1.51, 6.85, repro,
2009-02-11,0.79, 3.92, -12.78, 2.30, 1.58, 7.15, repro,
2009-02-12,0.41, 4.02, -12.97, 2.26, 1.54, 7.03, repro,
2009-02-13,-0.13, 5.25, -10.25, 2.24, 1.53, 6.95, repro,
2009-02-14,-0.56, 4.03, -10.10, 2.22, 1.51, 6.87, repro,
2009-02-15,-0.21, 4.26, -10.77, 2.24, 1.53, 6.99, repro,
2009-02-16,0.06, 4.26, -6.44, 2.20, 1.51, 6.88, repro,
2009-02-17,-0.78, 4.25, -5.11, 2.26, 1.52, 6.95, repro,
2009-02-18,0.58, 3.89, -13.88, 2.23, 1.52, 6.96, repro,
2009-02-19,-0.96, 4.75, -13.23, 2.22, 1.53, 6.98, repro,
2009-02-20,0.07, 4.46, -19.24, 2.20, 1.51, 6.84, repro,
2009-02-21,0.91, 4.89, -18.56, 2.25, 1.55, 7.06, repro,
2009-02-22,1.69, 4.13, -9.09, 2.21, 1.52, 6.90, repro,
2009-02-23,0.16, 4.07, -13.11, 2.24, 1.54, 6.99, repro,
2009-02-24,0.81, 4.87, -9.01, 2.36, 1.68, 7.40, repro,
2009-02-25,0.99, 2.48, -16.43, 175.09, 212.22, 392.66, repro,
2009-02-26,0.49, 5.17, -9.91, 2.24, 1.55, 7.00, repro,
2009-02-27,1.05, 4.33, -14.30, 2.34, 1.62, 7.31, repro,
2009-02-28,0.65, 4.86, -15.47, 2.22, 1.54, 7.00, repro,
2009-03-01,0.64, 4.10, -19.01, 2.23, 1.54, 7.06, repro,
2009-03-02,0.55, 3.72, -10.15, 2.19, 1.50, 6.83, repro,
2009-03-03,0.43, 4.26, -13.64, 2.28, 1.59, 7.19, repro,
2009-03-04,-0.29, 4.39, -11.39, 2.21, 1.52, 6.91, repro,
2009-03-05,-2.33, 4.81, -13.86, 2.24, 1.54, 7.05, repro,
2009-03-06,0.81, 5.28, -11.50, 2.26, 1.59, 7.15, repro,
2009-03-07,0.65, 4.21, -9.75, 2.19, 1.51, 6.84, repro,
2009-03-08,1.58, 5.20, -12.00, 2.21, 1.53, 6.96, repro,
2009-03-09,0.60, 3.84, -10.32, 2.23, 1.54, 7.00, repro,
2009-03-10,0.86, 4.53, -11.83, 2.29, 1.59, 7.21, repro,
2009-03-11,1.47, 4.68, -13.40, 2.20, 1.50, 6.84, repro,
2009-03-12,1.44, 5.27, -16.63, 2.21, 1.54, 6.98, repro,
2009-03-13,0.78, 4.42, -11.29, 2.22, 1.54, 6.95, repro,
2009-03-14,0.89, 3.99, -5.68, 2.20, 1.51, 6.86, repro,
2009-03-15,0.29, 4.83, -17.00, 2.22, 1.52, 6.93, repro,
2009-03-16,0.62, 4.76, -11.83, 2.23, 1.53, 6.96, repro,
2009-03-17,1.36, 5.55, -16.32, 2.21, 1.51, 6.88, repro,
2009-03-18,1.79, 4.10, -18.25, 2.17, 1.50, 6.79, repro,
2009-03-19,0.52, 5.10, -19.55, 2.19, 1.51, 6.82, repro,
2009-03-20,-0.02, 4.82, -5.56, 2.20, 1.51, 6.85, repro,
2009-03-21,0.20, 4.88, -8.77, 2.21, 1.51, 6.89, repro,
2009-03-22,0.59, 3.75, -12.32, 2.20, 1.51, 6.83, repro,
2009-03-23,1.67, 5.06, -9.44, 2.19, 1.51, 6.84, repro,
2009-03-24,0.67, 2.86, -10.64, 2.20, 1.51, 6.85, repro,
2009-03-25,0.43, 3.15, -5.56, 2.20, 1.51, 6.86, repro,
2009-03-26,0.67, 5.05, -12.96, 2.23, 1.51, 6.89, repro,
2009-03-27,0.35, 5.19, -5.49, 2.25, 1.53, 6.91, repro,
2009-03-28,1.15, 5.00, -6.59, 2.25, 1.52, 6.94, repro,
2009-03-29,0.20, 4.07, -5.22, 2.24, 1.53, 6.90, repro,
2009-03-30,0.96, 5.18, -9.14, 2.25, 1.53, 6.96, repro,
2009-03-31,1.34, 2.82, -11.51, 2.23, 1.52, 6.87, repro,
2009-04-01,1.14, 4.43, -10.30, 2.25, 1.54, 6.98, repro,
2009-04-02,0.56, 4.27, -7.59, 2.31, 1.57, 7.13, repro,
2009-04-03,1.63, 4.51, -9.59, 2.32, 1.55, 7.08, repro,
2009-04-04,0.70, 4.51, -16.28, 2.24, 1.53, 6.87, repro,
2009-04-05,0.05, 4.67, -13.21, 2.25, 1.52, 6.90, repro,
2009-04-06,1.06, 5.20, -13.10, 2.24, 1.52, 6.88, repro,
2009-04-07,1.67, 4.90, -12.85, 2.26, 1.52, 6.94, repro,
2009-04-08,1.70, 4.21, -8.36, 2.24, 1.52, 6.88, repro,
2009-04-09,0.80, 3.18, -9.36, 2.24, 1.52, 6.90, repro,
2009-04-10,0.24, 4.48, -12.33, 2.25, 1.52, 6.94, repro,
2009-04-11,-0.61, 4.31, -8.61, 2.26, 1.53, 6.98, repro,
2009-04-12,1.02, 4.68, -13.88, 2.26, 1.53, 6.99, repro,
2009-04-13,1.03, 4.33, -15.69, 2.27, 1.53, 7.01, repro,
2009-04-14,1.07, 4.83, -13.45, 2.24, 1.51, 6.85, repro,
2009-04-15,0.44, 4.97, -13.62, 2.26, 1.53, 6.98, repro,
2009-04-16,1.43, 5.47, -14.71, 2.25, 1.52, 6.95, repro,
2009-04-17,1.55, 5.83, -16.66, 2.25, 1.52, 6.92, repro,
2009-04-18,1.65, 5.36, -13.56, 2.26, 1.52, 6.97, repro,
2009-04-19,0.67, 5.56, -11.50, 2.25, 1.51, 6.91, repro,
2009-04-20,1.48, 4.69, -11.50, 2.24, 1.51, 6.88, repro,
2009-04-21,0.97, 4.34, -10.45, 2.25, 1.52, 6.95, repro,
2009-04-22,0.66, 3.74, -5.45, 2.27, 1.52, 7.00, repro,
2009-04-23,-0.33, 4.54, -6.11, 2.32, 1.56, 7.11, repro,
2009-04-24,1.07, 4.35, -6.57, 2.33, 1.55, 7.12, repro,
2009-04-25,2.85, 4.66, -10.57, 2.26, 1.50, 6.93, repro,
2009-04-26,1.36, 5.19, -16.62, 2.26, 1.51, 6.93, repro,
2009-04-27,1.09, 4.39, -13.02, 2.27, 1.51, 6.93, repro,
2009-04-28,1.06, 4.71, -12.29, 2.27, 1.51, 6.94, repro,
2009-04-29,1.22, 4.68, -11.17, 2.35, 1.60, 7.28, repro,
2009-04-30,1.54, 5.82, -15.24, 2.30, 1.57, 7.13, repro,
2009-05-01,2.22, 4.73, -5.94, 2.26, 1.51, 6.93, repro,
2009-05-02,0.52, 4.61, -9.77, 2.26, 1.50, 6.92, repro,
2009-05-03,0.29, 5.22, -11.81, 2.26, 1.51, 6.93, repro,
2009-05-04,0.29, 4.93, -9.41, 2.29, 1.54, 7.07, repro,
2009-05-05,1.69, 4.71, -6.91, 2.26, 1.50, 6.89, repro,
2009-05-06,1.14, 4.02, -8.07, 2.26, 1.51, 6.90, repro,
2009-05-07,1.62, 4.60, -10.00, 2.24, 1.50, 6.89, repro,
2009-05-08,2.75, 5.71, -17.07, 2.24, 1.49, 6.86, repro,
2009-05-09,1.96, 5.01, -15.55, 2.24, 1.49, 6.82, repro,
2009-05-10,1.48, 4.18, -13.03, 2.26, 1.52, 6.94, repro,
2009-05-11,0.45, 5.01, -8.43, 2.24, 1.51, 6.88, repro,
2009-05-12,2.27, 5.62, -7.98, 2.28, 1.54, 7.04, repro,
2009-05-13,2.39, 5.10, -12.90, 2.29, 1.53, 6.96, repro,
2009-05-14,2.92, 4.00, -12.70, 2.24, 1.50, 6.83, repro,
2009-05-15,2.62, 3.41, -9.85, 2.26, 1.51, 6.94, repro,
2009-05-16,3.10, 4.78, -11.21, 2.25, 1.51, 6.91, repro,
2009-05-17,2.15, 3.26, -11.31, 2.25, 1.51, 6.92, repro,
2009-05-18,3.46, 3.05, -12.35, 2.24, 1.51, 6.93, repro,
2009-05-19,2.92, 2.30, -6.01, 2.28, 1.54, 7.04, repro,
2009-05-20,2.81, 3.42, -4.36, 2.26, 1.50, 6.91, repro,
2009-05-21,2.71, 1.67, -11.83, 2.25, 1.51, 6.91, repro,
2009-05-22,2.00, 2.21, -12.33, 2.27, 1.51, 7.00, repro,
2009-05-23,2.47, 1.66, -14.01, 2.25, 1.50, 6.91, repro,
2009-05-24,3.06, 1.36, -12.55, 2.23, 1.51, 6.89, repro,
2009-05-25,3.56, 1.83, -12.90, 2.23, 1.51, 6.89, repro,
2009-05-26,1.86, 2.10, -9.85, 2.27, 1.51, 6.95, repro,
2009-05-27,1.77, 1.15, -7.28, 2.23, 1.49, 6.86, repro,
2009-05-28,1.03, 1.18, -0.60, 2.26, 1.51, 7.00, repro,
2009-05-29,2.07, 1.10, -6.64, 2.23, 1.50, 6.94, repro,
2009-05-30,2.02, 0.91, -4.74, 2.25, 1.51, 6.97, repro,
2009-05-31,1.51, 0.38, -11.18, 2.23, 1.50, 6.92, repro,
2009-06-01,-0.69, 0.30, -1.76, 2.24, 1.51, 6.95, repro,
2009-06-02,1.53, 0.70, -5.50, 2.26, 1.50, 6.93, repro,
2009-06-03,0.74, -0.01, -10.45, 2.25, 1.50, 6.93, repro,
2009-06-04,0.02, -0.01, -14.42, 2.24, 1.50, 6.90, repro,
2009-06-05,0.65, -1.20, -6.07, 2.24, 1.51, 6.92, repro,
2009-06-06,0.02, -0.16, 1.72, 2.28, 1.52, 6.99, repro,
2009-06-07,0.25, 0.02, -5.34, 2.26, 1.50, 6.94, repro,
2009-06-08,0.90, -0.48, -6.30, 2.27, 1.51, 6.97, repro,
2009-06-09,0.43, -0.94, -5.24, 2.25, 1.50, 6.90, repro,
2009-06-10,-0.55, -0.92, -7.44, 2.25, 1.50, 6.92, repro,
2009-06-11,0.14, -0.17, -3.42, 2.25, 1.51, 6.92, repro,
2009-06-12,-1.11, 0.76, -3.14, 2.24, 1.51, 6.88, repro,
2009-06-13,0.63, 0.53, -2.17, 2.26, 1.50, 6.91, repro,
2009-06-14,1.19, -0.31, -4.48, 2.28, 1.56, 7.08, repro,
2009-06-15,0.12, 0.10, -5.70, 2.24, 1.51, 6.90, repro,
2009-06-16,-1.63, -1.07, -3.48, 2.23, 1.51, 6.88, repro,
2009-06-17,-0.17, -0.36, -4.26, 2.24, 1.51, 6.87, repro,
2009-06-18,0.28, -1.45, 2.44, 2.25, 1.52, 6.95, repro,
2009-06-19,-0.04, -0.74, -1.93, 2.30, 1.53, 7.03, repro,
2009-06-20,0.59, -0.59, -0.27, 2.28, 1.54, 7.04, repro,
2009-06-21,0.37, -1.06, 0.61, 2.23, 1.51, 6.91, repro,
2009-06-22,-0.52, -0.11, -1.38, 2.22, 1.51, 6.88, repro,
2009-06-23,-0.48, -0.62, 4.29, 2.24, 1.51, 6.93, repro,
2009-06-24,-0.60, -1.32, 7.07, 2.26, 1.52, 6.97, repro,
2009-06-25,-0.60, -0.56, 5.80, 2.26, 1.52, 6.96, repro,
2009-06-26,-0.17, -1.96, -4.94, 2.25, 1.53, 6.95, repro,
2009-06-27,-0.43, -0.58, -7.95, 2.23, 1.54, 6.96, repro,
2009-06-28,0.18, -1.25, -2.45, 2.27, 1.54, 7.04, repro,
2009-06-29,-0.09, -0.67, -0.46, 2.29, 1.54, 7.08, repro,
2009-06-30,0.43, -2.13, -2.99, 2.26, 1.53, 6.96, repro,
2009-07-01,-1.09, -0.93, 2.85, 2.26, 1.53, 6.98, repro,
2009-07-02,-0.66, -1.05, 2.02, 2.23, 1.51, 6.86, repro,
2009-07-03,1.19, -0.01, -0.89, 2.21, 1.51, 6.83, repro,
2009-07-04,0.99, -0.20, -5.74, 2.26, 1.51, 6.97, repro,
2009-07-05,-1.10, -1.13, -0.80, 2.26, 1.51, 6.91, repro,
2009-07-06,0.25, -0.89, -2.18, 2.25, 1.51, 6.89, repro,
2009-07-07,-0.84, -1.54, -0.14, 2.26, 1.52, 6.93, repro,
2009-07-08,0.04, -1.09, -1.86, 2.23, 1.51, 6.89, repro,
2009-07-09,0.33, -0.76, -2.03, 2.24, 1.51, 6.85, repro,
2009-07-10,0.09, 0.80, -1.90, 2.27, 1.52, 6.94, repro,
2009-07-11,-2.47, -1.40, 5.64, 2.25, 1.51, 6.89, repro,
2009-07-12,-1.62, -0.67, 3.77, 2.27, 1.53, 7.00, repro,
2009-07-13,-0.27, -1.00, -4.04, 2.23, 1.52, 6.86, repro,
2009-07-14,-0.26, -1.06, 2.26, 2.21, 1.51, 6.84, repro,
2009-07-15,-0.90, -0.58, 5.27, 2.23, 1.52, 6.87, repro,
2009-07-16,-0.77, -0.24, -0.61, 2.25, 1.51, 6.88, repro,
2009-07-17,-0.99, -0.82, -1.90, 2.23, 1.51, 6.87, repro,
2009-07-18,-0.15, -0.70, 1.74, 2.25, 1.52, 6.94, repro,
2009-07-19,0.09, -1.80, -0.94, 2.24, 1.52, 6.90, repro,
2009-07-20,-0.11, -0.29, -0.62, 2.24, 1.52, 6.88, repro,
2009-07-21,-0.01, -0.06, 3.04, 2.23, 1.50, 6.82, repro,
2009-07-22,-1.11, 0.07, 1.78, 2.24, 1.51, 6.87, repro,
2009-07-23,-0.88, -0.23, 5.88, 2.24, 1.51, 6.88, repro,
2009-07-24,0.24, 0.03, 7.16, 2.27, 1.56, 7.16, repro,
2009-07-25,-0.20, -0.30, -2.66, 2.31, 1.55, 7.14, repro,
2009-07-26,-1.26, 0.42, -4.98, 2.29, 1.56, 7.13, repro,
2009-07-27,-0.62, 0.18, -5.61, 2.24, 1.51, 6.87, repro,
2009-07-28,-0.56, -0.56, 4.45, 2.24, 1.51, 6.90, repro,
2009-07-29,-0.80, -1.27, 2.93, 2.26, 1.52, 6.95, repro,
2009-07-30,-1.57, -0.33, -0.74, 2.34, 1.55, 7.12, repro,
2009-07-31,-0.81, -0.51, -3.28, 2.25, 1.53, 6.98, repro,
2009-08-01,-0.36, -1.20, 0.55, 2.24, 1.52, 6.90, repro,
2009-08-02,-1.53, -0.64, 7.14, 2.27, 1.56, 7.16, repro,
2009-08-03,-1.54, -1.00, 0.97, 2.27, 1.52, 6.97, repro,
2009-08-04,-0.61, -1.98, 4.70, 2.41, 1.68, 7.68, repro,
2009-08-05,-0.50, -2.60, -4.85, 2.31, 1.55, 7.12, repro,
2009-08-06,0.51, -0.32, 2.71, 2.24, 1.53, 6.93, repro,
2009-08-07,-0.53, -0.88, -1.09, 2.47, 1.76, 8.22, repro,
2009-08-08,-2.31, -1.33, 0.09, 2.28, 1.53, 7.00, repro,
2009-08-09,-1.49, -1.46, -1.84, 2.27, 1.57, 7.18, repro,
2009-08-10,-0.24, -0.98, -7.33, 2.26, 1.53, 6.97, repro,
2009-08-11,-2.56, -2.12, 0.58, 2.27, 1.54, 6.99, repro,
2009-08-12,-0.44, -1.86, 0.21, 2.24, 1.53, 6.91, repro,
2009-08-13,-0.28, -1.72, 3.89, 2.26, 1.53, 6.95, repro,
2009-08-14,-0.57, -0.97, -0.63, 2.26, 1.52, 6.92, repro,
2009-08-15,-2.11, -1.11, 0.49, 2.25, 1.52, 6.92, repro,
2009-08-16,0.14, -1.47, 2.88, 2.31, 1.54, 7.00, repro,
2009-08-17,-2.05, -0.72, 3.20, 2.26, 1.53, 6.96, repro,
2009-08-18,-0.80, 0.13, 9.04, 2.27, 1.52, 6.96, repro,
2009-08-19,-0.50, -0.21, 7.22, 2.29, 1.53, 7.02, repro,
2009-08-20,-0.94, -0.90, 6.34, 2.29, 1.56, 7.05, repro,
2009-08-21,0.45, -0.67, -6.67, 2.33, 1.57, 7.15, repro,
2009-08-22,-1.43, -1.31, 0.31, 2.34, 1.57, 7.14, repro,
2009-08-23,-0.93, 0.22, 3.64, 2.40, 1.60, 7.27, repro,
2009-08-24,-1.11, 0.14, 7.21, 2.33, 1.58, 7.17, repro,
2009-08-25,-2.70, -1.13, -1.80, 2.35, 1.59, 7.24, repro,
2009-08-26,0.54, -0.94, 0.16, 2.31, 1.56, 7.05, repro,
2009-08-27,-0.53, -0.11, 0.14, 2.31, 1.57, 7.09, repro,
2009-08-28,-0.77, 0.03, 4.28, 2.27, 1.54, 7.00, repro,
2009-08-29,-0.49, 1.14, -1.37, 2.27, 1.54, 6.95, repro,
2009-08-30,-1.46, 0.95, -1.04, 2.25, 1.54, 6.93, repro,
2009-08-31,-0.27, 0.43, -12.43, 2.26, 1.54, 6.99, repro,
2009-09-01,-1.33, -0.14, 5.59, 2.33, 1.56, 7.14, repro,
2009-09-02,-2.47, -1.26, 1.51, 2.31, 1.62, 7.29, repro,
2009-09-03,-0.08, 0.14, -0.09, 2.28, 1.54, 7.02, repro,
2009-09-04,-0.18, 0.88, -1.65, 2.26, 1.53, 6.97, repro,
2009-09-05,-1.53, -1.65, 15.08, 2.31, 1.58, 7.21, repro,
2009-09-06,-1.27, 0.51, -4.74, 2.35, 1.59, 7.24, repro,
2009-09-07,0.19, 0.18, -3.04, 2.26, 1.54, 6.99, repro,
2009-09-08,0.00, 0.09, 1.57, 2.27, 1.54, 7.03, repro,
2009-09-09,-2.08, 1.93, -0.13, 2.27, 1.54, 7.06, repro,
2009-09-10,0.92, 0.45, -4.90, 2.27, 1.53, 6.96, repro,
2009-09-11,0.10, -0.49, -8.15, 2.26, 1.53, 7.01, repro,
2009-09-12,-0.38, -0.56, -1.03, 2.26, 1.53, 6.96, repro,
2009-09-13,0.55, -0.16, 8.39, 2.32, 1.60, 7.21, repro,
2009-09-14,-1.11, -1.56, 9.31, 2.25, 1.52, 6.94, repro,
2009-09-15,-0.87, 0.26, -0.08, 2.24, 1.53, 6.96, repro,
2009-09-16,0.29, 1.82, -6.32, 2.27, 1.54, 7.02, repro,
2009-09-17,-1.07, -0.44, -2.56, 2.31, 1.59, 7.26, repro,
2009-09-18,-1.62, 0.35, 1.05, 2.30, 1.57, 7.22, repro,
2009-09-19,-0.90, 0.03, 7.71, 2.28, 1.54, 7.03, repro,
2009-09-20,-1.44, -0.33, 2.69, 2.25, 1.52, 6.95, repro,
2009-09-21,-1.39, -0.05, -1.37, 2.24, 1.53, 6.95, repro,
2009-09-22,-0.24, -0.48, -2.88, 2.29, 1.56, 7.07, repro,
2009-09-23,-0.63, 0.27, -3.06, 2.27, 1.56, 7.05, repro,
2009-09-24,-0.43, 0.14, 1.38, 2.24, 1.52, 6.95, repro,
2009-09-25,-0.39, 0.14, -4.38, 2.28, 1.56, 7.09, repro,
2009-09-26,-0.40, 0.17, -1.07, 2.26, 1.53, 7.01, repro,
2009-09-27,-0.62, 0.65, 0.63, 2.24, 1.53, 6.95, repro,
2009-09-28,0.62, -0.18, 2.82, 2.31, 1.55, 7.12, repro,
2009-09-29,0.72, -1.35, -3.74, 2.30, 1.58, 7.14, repro,
2009-09-30,-1.57, 0.53, 1.16, 2.26, 1.54, 7.00, repro,
2009-10-01,-0.55, -1.22, -4.35, 2.26, 1.52, 7.00, repro,
2009-10-02,-0.26, -0.27, -3.11, 2.23, 1.53, 6.95, repro,
2009-10-03,-0.16, -0.32, -2.31, 2.24, 1.54, 7.00, repro,
2009-10-04,0.65, 0.22, -9.86, 2.26, 1.53, 6.98, repro,
2009-10-05,0.97, 1.14, -3.13, 2.24, 1.53, 6.99, repro,
2009-10-06,-0.07, -0.09, 1.57, 2.27, 1.54, 7.08, repro,
2009-10-07,-0.31, 0.24, 0.42, 2.24, 1.52, 6.97, repro,
2009-10-08,0.62, 0.78, -2.44, 2.32, 1.58, 7.08, repro,
2009-10-09,-1.05, 0.42, -6.15, 2.25, 1.53, 7.00, repro,
2009-10-10,-0.68, 0.77, -1.14, 2.33, 1.62, 7.51, repro,
2009-10-11,-0.10, 0.65, -0.84, 2.24, 1.53, 6.98, repro,
2009-10-12,-1.15, -0.42, 5.67, 2.26, 1.53, 7.03, repro,
2009-10-13,0.30, 0.35, 1.67, 2.25, 1.55, 7.06, repro,
2009-10-14,-1.13, -1.12, 0.53, 2.24, 1.54, 6.96, repro,
2009-10-15,1.13, 1.19, 3.61, 2.27, 1.58, 7.21, repro,
2009-10-16,-0.13, 1.41, -9.25, 2.31, 1.60, 7.33, repro,
2009-10-17,-1.17, 2.21, -3.27, 2.32, 1.60, 7.29, repro,
2009-10-18,0.64, 0.76, -2.59, 2.25, 1.57, 7.12, repro,
2009-10-19,0.41, 0.68, -9.23, 2.25, 1.57, 7.07, repro,
2009-10-20,-0.06, 0.88, -6.91, 2.28, 1.60, 7.25, repro,
2009-10-21,-0.53, 0.70, -1.10, 2.31, 1.60, 7.26, repro,
2009-10-22,-0.93, 0.32, 1.47, 2.32, 1.61, 7.27, repro,
2009-10-23,-0.06, 1.60, -0.69, 2.27, 1.59, 7.22, repro,
2009-10-24,0.78, 2.65, -3.59, 2.31, 1.61, 7.24, repro,
2009-10-25,0.37, 1.31, -0.43, 2.28, 1.58, 7.17, repro,
2009-10-26,0.28, 0.96, 4.00, 2.31, 1.61, 7.31, repro,
2009-10-27,0.92, -0.41, 1.47, 2.27, 1.58, 7.17, repro,
2009-10-28,0.67, 1.71, -5.16, 2.25, 1.56, 7.08, repro,
2009-10-29,1.15, 1.17, -2.00, 2.24, 1.56, 7.06, repro,
2009-10-30,0.31, 2.28, -2.61, 2.25, 1.57, 7.09, repro,
2009-10-31,2.26, 0.00, 4.59, 2.35, 1.62, 7.35, repro,
2009-11-01,1.04, 1.88, -7.75, 2.27, 1.57, 7.14, repro,
2009-11-02,0.80, 0.69, -12.50, 2.31, 1.59, 7.20, repro,
2009-11-03,1.39, 2.05, -6.63, 2.23, 1.56, 7.03, repro,
2009-11-04,0.69, 1.30, -2.96, 2.26, 1.56, 7.09, repro,
2009-11-05,2.07, 1.91, -2.76, 2.31, 1.60, 7.33, repro,
2009-11-06,2.59, 1.20, -1.41, 2.31, 1.62, 7.39, repro,
2009-11-07,3.48, 1.41, -3.97, 2.28, 1.60, 7.26, repro,
2009-11-08,2.26, 1.08, 1.08, 2.26, 1.58, 7.15, repro,
2009-11-09,0.91, 2.32, -4.27, 2.27, 1.59, 7.22, repro,
2009-11-10,1.25, 2.46, -9.08, 2.29, 1.60, 7.26, repro,
2009-11-11,1.68, 2.05, -5.46, 2.29, 1.58, 7.21, repro,
2009-11-12,2.62, 1.04, -1.48, 2.33, 1.66, 7.51, repro,
2009-11-13,3.12, 1.17, -5.09, 2.29, 1.62, 7.30, repro,
2009-11-14,2.18, 1.86, 1.16, 2.29, 1.60, 7.23, repro,
2009-11-15,1.49, 3.17, -7.81, 2.23, 1.57, 7.06, repro,
2009-11-16,3.81, 4.38, -2.18, 2.27, 1.58, 7.18, repro,
2009-11-17,3.71, 3.09, -5.32, 2.39, 1.61, 7.44, repro,
2009-11-18,4.04, 2.69, -13.26, 2.36, 1.62, 7.35, repro,
2009-11-19,3.10, 2.51, 1.57, 2.25, 1.59, 7.16, repro,
2009-11-20,3.57, 2.63, -2.34, 2.27, 1.59, 7.20, repro,
2009-11-21,1.91, 1.52, -4.29, 2.24, 1.57, 7.09, repro,
2009-11-22,1.69, 1.66, -5.72, 2.29, 1.61, 7.30, repro,
2009-11-23,0.28, 0.97, 1.95, 2.27, 1.56, 7.06, repro,
2009-11-24,0.22, 1.98, -11.11, 2.29, 1.59, 7.16, repro,
2009-11-25,3.29, 4.20, -17.05, 2.28, 1.59, 7.20, repro,
2009-11-26,2.99, 2.03, -12.56, 2.25, 1.57, 7.08, repro,
2009-11-27,2.94, 1.57, -14.64, 2.28, 1.57, 7.15, repro,
2009-11-28,2.09, 3.20, -17.84, 2.31, 1.61, 7.27, repro,
2009-11-29,2.50, 3.21, -9.44, 2.27, 1.57, 7.11, repro,
2009-11-30,4.14, 1.18, -18.30, 2.42, 1.64, 7.40, repro,
2009-12-01,2.65, 2.27, -17.80, 2.25, 1.56, 7.04, repro,
2009-12-02,1.56, 2.83, -11.01, 2.24, 1.53, 6.95, repro,
2009-12-03,0.78, 2.74, -12.89, 2.27, 1.53, 7.00, repro,
2009-12-04,0.64, 1.62, -9.84, 2.25, 1.53, 6.98, repro,
2009-12-05,2.05, 2.20, -10.81, 2.22, 1.53, 6.93, repro,
2009-12-06,1.01, 3.55, -12.49, 2.24, 1.53, 6.97, repro,
2009-12-07,3.76, 1.19, -14.58, 2.23, 1.52, 6.95, repro,
2009-12-08,1.95, 1.14, -1.90, 2.27, 1.55, 7.03, repro,
2009-12-09,1.06, 2.74, -2.33, 2.29, 1.59, 7.27, repro,
2009-12-10,0.57, 2.31, -1.92, 2.26, 1.56, 7.08, repro,
2009-12-11,1.34, 2.42, -4.68, 2.24, 1.58, 7.13, repro,
2009-12-12,2.11, 2.63, -4.22, 2.28, 1.59, 7.24, repro,
2009-12-13,1.99, 0.77, -8.77, 2.24, 1.52, 6.95, repro,
2009-12-14,1.26, 1.45, -9.91, 2.27, 1.54, 7.04, repro,
2009-12-15,3.49, 0.78, -17.94, 2.26, 1.55, 7.08, repro,
2009-12-16,1.45, 1.88, -7.32, 2.27, 1.54, 7.05, repro,
2009-12-17,1.70, 3.64, -10.21, 2.28, 1.57, 7.15, repro,
2009-12-18,1.64, 3.58, -10.74, 2.22, 1.52, 6.93, repro,
2009-12-19,3.28, 2.65, -14.37, 2.31, 1.58, 7.23, repro,
2009-12-20,0.35, 0.78, -11.36, 2.26, 1.56, 7.11, repro,
2009-12-21,0.81, 1.91, -7.32, 2.32, 1.59, 7.28, repro,
2009-12-22,2.19, 3.02, -13.22, 2.28, 1.56, 7.14, repro,
2009-12-23,1.97, 2.88, -15.93, 2.26, 1.55, 7.05, repro,
2009-12-24,1.74, 3.51, -18.30, 2.22, 1.51, 6.87, repro,
2009-12-25,0.57, 2.13, -15.35, 2.23, 1.52, 6.94, repro,
2009-12-26,0.74, 2.43, -10.13, 2.27, 1.56, 7.09, repro,
2009-12-27,2.92, 3.71, -11.92, 2.29, 1.55, 7.12, repro,
2009-12-28,2.50, 3.24, -13.22, 2.22, 1.52, 6.92, repro,
2009-12-29,1.43, 2.79, -9.92, 2.20, 1.51, 6.82, repro,
2009-12-30,0.13, 2.59, -8.10, 2.20, 1.51, 6.85, repro,
2009-12-31,1.75, 2.77, -12.62, 2.24, 1.53, 6.97, repro,
2010-01-01,2.71, 2.69, -20.86, 2.24, 1.53, 7.00, repro,
2010-01-02,2.39, 3.78, -12.33, 2.24, 1.53, 7.02, repro,
2010-01-03,2.15, 3.80, -15.46, 2.23, 1.52, 6.93, repro,
2010-01-04,1.88, 2.99, -11.93, 2.19, 1.51, 6.88, repro,
2010-01-05,2.86, 3.33, -16.61, 2.20, 1.52, 6.94, repro,
2010-01-06,2.39, 3.48, -18.77, 2.21, 1.52, 6.92, repro,
2010-01-07,1.75, 3.15, -13.09, 2.24, 1.53, 7.01, repro,
2010-01-08,2.49, 1.96, -12.96, 2.27, 1.54, 7.14, repro,
2010-01-09,2.37, 3.74, -18.06, 2.24, 1.57, 7.19, repro,
2010-01-10,1.37, 3.71, -12.17, 2.20, 1.52, 6.89, repro,
2010-01-11,2.41, 4.92, -11.49, 2.22, 1.53, 6.99, repro,
2010-01-12,2.49, 3.00, -5.51, 2.23, 1.54, 7.02, repro,
2010-01-13,1.46, 2.40, -11.23, 2.26, 1.55, 7.10, repro,
2010-01-14,2.56, 2.66, -15.50, 2.30, 1.59, 7.40, repro,
2010-01-15,1.34, 4.57, -12.70, 2.27, 1.57, 7.15, repro,
2010-01-16,2.40, 3.24, -10.00, 2.20, 1.51, 6.88, repro,
2010-01-17,-0.69, 3.26, -5.09, 2.24, 1.55, 7.05, repro,
2010-01-18,2.27, 2.09, -4.43, 2.22, 1.53, 6.96, repro,
2010-01-19,0.82, 1.50, -0.93, 2.31, 1.55, 7.11, repro,
2010-01-20,1.85, 1.28, -1.16, 2.33, 1.57, 7.19, repro,
2010-01-21,2.54, 1.79, -3.01, 2.26, 1.54, 7.00, repro,
2010-01-22,1.68, 1.68, -4.57, 2.23, 1.53, 6.96, repro,
2010-01-23,1.04, 2.25, -15.42, 2.22, 1.54, 6.97, repro,
2010-01-24,2.23, 2.87, -16.79, 2.23, 1.54, 7.00, repro,
2010-01-25,2.28, 3.59, -14.40, 2.22, 1.52, 6.93, repro,
2010-01-26,2.89, 3.48, -13.61, 2.27, 1.56, 7.06, repro,
2010-01-27,2.58, 3.64, -14.68, 2.27, 1.56, 7.06, repro,
2010-01-28,0.59, 2.80, -18.28, 2.22, 1.54, 7.09, repro,
2010-01-29,1.90, 3.48, -15.40, 2.22, 1.52, 6.96, repro,
2010-01-30,1.63, 2.95, -15.87, 2.22, 1.52, 6.97, repro,
2010-01-31,2.26, 3.42, -12.46, 2.22, 1.51, 6.93, repro,
2010-02-01,2.57, 3.58, -8.43, 2.21, 1.52, 6.95, repro,
2010-02-02,1.78, 2.64, -8.38, 2.31, 1.55, 7.12, repro,
2010-02-03,1.51, 2.48, -7.06, 2.25, 1.57, 7.09, repro,
2010-02-04,1.92, 2.55, -5.59, 2.27, 1.60, 7.33, repro,
2010-02-05,1.81, 3.47, -12.01, 2.24, 1.56, 7.12, repro,
2010-02-06,1.32, 2.70, -14.34, 2.25, 1.55, 7.04, repro,
2010-02-07,2.26, 3.23, -9.63, 2.27, 1.53, 6.97, repro,
2010-02-08,1.11, 3.31, -12.08, 2.29, 1.57, 7.08, repro,
2010-02-09,1.37, 3.33, -13.23, 2.29, 1.57, 7.13, repro,
2010-02-10,1.81, 2.81, -14.58, 2.32, 1.61, 7.20, repro,
2010-02-11,2.15, 3.46, -14.11, 2.26, 1.56, 7.10, repro,
2010-02-12,2.44, 4.28, -3.54, 2.26, 1.56, 7.06, repro,
2010-02-13,1.10, 3.51, -5.88, 2.20, 1.52, 6.90, repro,
2010-02-14,3.44, 3.47, -6.90, 2.20, 1.52, 6.90, repro,
2010-02-15,1.11, 3.68, -11.60, 2.23, 1.56, 7.04, repro,
2010-02-16,0.05, 2.47, -8.41, 2.30, 1.55, 7.10, repro,
2010-02-17,-0.60, 3.61, -14.59, 2.34, 1.60, 7.25, repro,
2010-02-18,2.61, 4.00, -11.89, 2.34, 1.60, 7.25, repro,
2010-02-19,0.66, 3.66, -11.17, 2.30, 1.58, 7.18, repro,
2010-02-20,0.49, 2.14, -11.13, 2.20, 1.52, 6.91, repro,
2010-02-21,1.21, 2.14, -9.47, 2.21, 1.52, 6.93, repro,
2010-02-22,0.23, 3.57, -10.07, 2.30, 1.57, 7.13, repro,
2010-02-23,0.10, 3.03, -12.79, 2.29, 1.56, 7.05, repro,
2010-02-24,1.59, 2.62, -9.13, 2.27, 1.53, 6.99, repro,
2010-02-25,-0.20, 4.08, -5.55, 2.21, 1.52, 6.94, repro,
2010-02-26,2.81, 3.29, -11.81, 2.25, 1.56, 7.12, repro,
2010-02-27,0.44, 2.91, -6.56, 2.26, 1.59, 7.32, repro,
2010-02-28,0.30, 2.64, -6.99, 2.20, 1.50, 6.87, repro,
2010-03-01,0.40, 2.79, -8.86, 2.23, 1.54, 6.96, repro,
2010-03-02,2.28, 4.02, -10.22, 2.21, 1.51, 6.93, repro,
2010-03-03,2.20, 2.22, -7.97, 2.27, 1.57, 7.11, repro,
2010-03-04,1.10, 2.57, -11.33, 2.25, 1.54, 7.00, repro,
2010-03-05,0.93, 2.62, -11.84, 2.19, 1.50, 6.84, repro,
2010-03-06,0.57, 3.51, -10.55, 2.20, 1.50, 6.83, repro,
2010-03-07,0.80, 2.88, -6.74, 2.19, 1.49, 6.79, repro,
2010-03-08,1.26, 2.59, -6.82, 2.21, 1.51, 6.87, repro,
2010-03-09,1.44, 2.75, -9.73, 2.22, 1.50, 6.89, repro,
2010-03-10,-0.74, 3.39, -2.50, 2.20, 1.50, 6.82, repro,